Regional Weather Roundup
Issued by NWS

Home | Current Version | Previous Version | Graphics & Text | Print | Product List | Glossary On
Versions: 1 2 3 4 5 6 7 8 9 10 11 12 13 14 15 16 17 18 19 20 21 22 23 24 25 26 27 28 29 30 31 32 33 34 35 36 37 38 39 40 41 42 43 44 45 46 47 48 49 50
608
ASUS43 KDMX 241908
RWRIA

WEATHER ROUNDUP FOR IOWA
NATIONAL WEATHER SERVICE DES MOINES IA
200 PM CDT TUE MAY 24 2016

NOTE: "FAIR" INDICATES FEW OR NO CLOUDS BELOW 12,000 FEET WITH NO
SIGNIFICANT WEATHER AND/OR OBSTRUCTIONS TO VISIBILITY.

* - THESE STATIONS ARE NOT NWS STATIONS...THUS NOT UNDER NWS
QUALITY CONTROL.  THEY ALSO DO NOT REPORT WEATHER SUCH
AS PRECIPITATION OR FOG.

IAZ001>003-012>014-020>022-031>034-043>046-242000-
   NORTHWEST IOWA

CITY           SKY/WX    TMP DP  RH WIND       PRES   REMARKS
CARROLL *      PTSUNNY   75  66  73 MISG      29.90S
CHEROKEE *     SUNNY     77  66  69 CALM      29.88S
DENISON *      SUNNY     75  64  69 VRB5      29.88S
LE MARS *      SUNNY     79  66  65 CALM      29.88S HX  81
ORANGE CITY *  SUNNY     77  66  69 CALM      29.88F
SHELDON *      SUNNY     77  66  69 W5        29.87F
SIOUX CITY     SUNNY     80  69  69 CALM      29.87S HX  83
SPENCER        PTSUNNY   78  65  63 VRB5      29.89F HX  80
STORM LAKE *     N/A     77  63  61 VRB3      29.90S
$$

IAZ055>058-069>071-079>083-090>094-242000-
   SOUTHWEST IOWA

CITY           SKY/WX    TMP DP  RH WIND       PRES   REMARKS
ATLANTIC *     SUNNY     79  61  53 SW6       29.89S HX  80
AUDUBON *      MOSUNNY   75  66  73 S3        29.91F
CLARINDA *       N/A     79  63  57 MISG      29.90R HX  80
COUNCIL BLFS * SUNNY     77  57  50 S6        29.89R
CRESTON *      SUNNY     79  59  50 VRB5      29.91F HX  80
HARLAN  *        N/A    N/A N/A N/A MISG        N/A
LAMONI         PTSUNNY   78  63  59 CALM      29.92R HX  80
RED OAK *      SUNNY     77  63  61 NE7       29.89S
SHENANDOAH *   SUNNY     77  63  61 CALM      29.89R
$$

IAZ047>049-059>061-072>074-084-242000-
   CENTRAL IOWA

CITY           SKY/WX    TMP DP  RH WIND       PRES   REMARKS
AMES           PTSUNNY   76  66  71 S8        29.92R
ANKENY *       PTSUNNY   75  66  73 NW3       29.91S
BOONE *        CLOUDY    75  64  69 VRB3      29.91R
CHARITON *     MOSUNNY   81  63  54 W9        29.92R HX  82
DES MOINES     PTSUNNY   77  63  61 CALM      29.91S
GRINNELL*      CLOUDY    77  63  61 SW5       29.92R
KNOXVILLE *    MOSUNNY   79  61  53 W9        29.90R HX  80
MARSHALLTOWN   CLOUDY    75  64  68 S8        29.91S
NEWTON *       PTSUNNY   77  64  65 SW5       29.91S
PERRY *          N/A     75  68  78 E6        29.90F
$$

IAZ004>006-015-016-023>025-035-036-242000-
   NORTH CENTRAL IOWA

CITY           SKY/WX    TMP DP  RH WIND       PRES   REMARKS
ALGONA *       SUNNY     79  61  53 S9        29.90F HX  80
CLARION *      MOSUNNY   75  64  69 VRB3      29.91S
ESTHERVILLE    MOSUNNY   77  62  59 CALM      29.89F
FORT DODGE *   MOSUNNY   75  63  64 S8        29.92S
MASON CITY     PTSUNNY   75  64  68 CALM      29.92F
FOREST CITY *  SUNNY     73  63  68 SE5       29.91F
WEBSTER CITY * MOSUNNY   75  64  69 VRB6      29.90R
IOWA FALLS *     N/A     79  63  57 CALM      29.92S HX  80
$$

IAZ007>011-017>019-026>030-037>042-050>054-066-242000-
   NORTHEAST IOWA

CITY           SKY/WX    TMP DP  RH WIND       PRES   REMARKS
CEDAR RAPIDS   MOSUNNY   81  64  56 VRB6      29.90F HX  82
CHARLES CITY * MOSUNNY   77  61  57 CALM      29.91F
CLINTON *      MOSUNNY   85  62  46 S10       29.92F HX  85
DECORAH *      MOSUNNY   79  57  47 VRB7      29.91F HX  80
DUBUQUE        CLOUDY    73  63  70 W8        29.95S
MONTICELLO *   MOSUNNY   79  64  61 NW8       29.92F HX  81
OELWEIN *      MOSUNNY   79  61  53 VRB6G16   29.92F HX  80
WATERLOO       PTSUNNY   79  60  52 SE9       29.89F HX  80
$$

IAZ064-065-067-068-078-242000-
   EAST CENTRAL IOWA

CITY           SKY/WX    TMP DP  RH WIND       PRES   REMARKS
DAVENPORT      SUNNY     86  58  38 S13G23    29.92F HX  85
IOWA CITY      MOSUNNY   81  61  50 S9G18     29.92F HX  82
MT. PLEASANT * MOSUNNY   86  63  45 SE12G17   29.92F HX  87
MUSCATINE *    MOSUNNY   84  61  45 S13G20    29.91F HX  84
QUAD CITIES    SUNNY     86  59  39 SW12      29.90F HX  85
$$

IAZ062-063-075>077-085>089-095>099-242000-
   SOUTHEAST IOWA

CITY           SKY/WX    TMP DP  RH WIND       PRES   REMARKS
BURLINGTON     PTSUNNY   80  62  54 S13       29.93S HX  81
FAIRFIELD *      N/A    N/A N/A N/A MISG        N/A
FORT MADISON * MOSUNNY   84  63  48 S9        29.94F HX  85
KEOKUK *       PTSUNNY   82  64  54 S8G15     29.93F HX  84
OSKALOOSA *      N/A     84  57  39 SW14      29.90S HX  83
OTTUMWA        PTSUNNY   82  65  56 SW12      29.90F HX  84
WASHINGTON *   MOSUNNY   82  64  54 S13G21    29.92F HX  84
$$

ABBREVIATIONS USED IN REMARKS
   TC - TEMPERATURES IN CELSIUS
  WCI - WIND CHILL INDEX
   HX - HEAT INDEX
  VSB - VISIBILITY
$$





USA.gov is the U.S. government's official web portal to all federal, state and local government web resources and services.